Detroit, MI

11:40 AM EDT on May 25, 2018 (GMT -0400)
Detroit City

Weather History for KDET - December, 2012

Change the Weather History Date:

Friday, December 7, 2012

  Actual Average Record
Temperature  
Mean Temperature 40 °F -  
Max Temperature 43 °F 38 °F 62 °F (1951)
Min Temperature 37 °F 28 °F 9 °F (1972)
Degree Days  
Heating Degree Days 25    
Moisture  
Dew Point 38 °F    
Average Humidity 90    
Maximum Humidity 96    
Minimum Humidity 77    
Precipitation  
Precipitation 0.04 in - - ()
Sea Level Pressure  
Sea Level Pressure 29.94 in    
Wind  
Wind Speed 3 mph (South)    
Max Wind Speed 8 mph    
Max Gust Speed -    
Visibility 5 miles    
Events Rain    
Averages and records for this station are not official NWS values.
T = Trace of Precipitation, MM = Missing Value Source: NWS Daily Summary

Daily Weather History Graph

Daily Weather History Graph

Search for Another Location

Airport or City:

Astronomy

Dec. 07, 2012 Rise Set
Actual Time 7:48 AM EST 4:59 PM EST
Civil Twilight 7:16 AM EST 5:30 PM EST
Nautical Twilight 6:41 AM EST 6:06 PM EST
Astronomical Twilight 6:07 AM EST 6:40 PM EST
Moon 12:59 AM EST (12/7) 1:01 PM EST (12/7)
Length of Visible Light 10h 14m
Length of Day
9h 10m
Last Quarter, 39% of the Moon is Illuminated
Dec 7
Last Quarter
Dec 13
New
Dec 20
First Quarter
Dec 28
Full
Jan 4
Last Quarter

Hourly Weather History & Observations

Time (EST) Temp. Windchill Dew Point Humidity Pressure Visibility Wind Dir Wind Speed Gust Speed Precip Events Conditions
12:53 AM 37.0 °F - 32.0 °F 82% 29.98 in 10.0 mi Calm Calm - N/A   Clear
1:53 AM 37.9 °F 34.4 °F 33.1 °F 83% 29.96 in 10.0 mi South 4.6 mph - N/A   Overcast
2:53 AM 39.9 °F 36.7 °F 33.1 °F 77% 29.97 in 10.0 mi West 4.6 mph - N/A   Overcast
3:53 AM 37.9 °F 35.5 °F 32.0 °F 79% 29.96 in 10.0 mi SSW 3.5 mph - N/A   Partly Cloudy
4:53 AM 37.9 °F 34.4 °F 33.1 °F 83% 29.95 in 10.0 mi SSW 4.6 mph - N/A   Mostly Cloudy
5:53 AM 39.9 °F 36.7 °F 33.1 °F 77% 29.96 in 10.0 mi WSW 4.6 mph - N/A   Overcast
6:53 AM 39.9 °F 36.7 °F 33.1 °F 77% 29.97 in 10.0 mi SW 4.6 mph - N/A   Overcast
7:53 AM 39.9 °F 37.8 °F 34.0 °F 79% 29.97 in 9.0 mi West 3.5 mph - 0.00 in Rain Light Rain
8:53 AM 39.0 °F 36.8 °F 37.0 °F 93% 29.98 in 4.0 mi SW 3.5 mph - 0.02 in Rain Light Rain
9:53 AM 39.9 °F 37.8 °F 37.9 °F 93% 29.98 in 5.0 mi SSW 3.5 mph - 0.01 in Rain Light Rain
10:21 AM 39.2 °F 37.0 °F 37.4 °F 93% 29.97 in 4.0 mi WSW 3.5 mph - 0.00 in Rain Light Rain
10:53 AM 41.0 °F 37.1 °F 39.0 °F 93% 29.99 in 3.0 mi West 5.8 mph - 0.00 in Rain Light Rain
11:53 AM 41.0 °F 38.0 °F 39.0 °F 93% 29.97 in 4.0 mi WSW 4.6 mph - 0.01 in Rain Light Rain
12:26 PM 41.0 °F 38.0 °F 39.2 °F 93% 29.94 in 4.0 mi WNW 4.6 mph - 0.00 in   Overcast
12:53 PM 41.0 °F - 39.0 °F 93% 29.95 in 5.0 mi Calm Calm - 0.00 in   Overcast
1:53 PM 42.1 °F - 39.9 °F 92% 29.94 in 5.0 mi Calm Calm - 0.00 in   Overcast
2:29 PM 42.8 °F 40.1 °F 39.2 °F 87% 29.92 in 4.0 mi South 4.6 mph - N/A   Overcast
2:35 PM 42.8 °F 40.1 °F 39.2 °F 87% 29.92 in 4.0 mi South 4.6 mph - N/A   Overcast
2:53 PM 43.0 °F - 39.9 °F 89% 29.94 in 4.0 mi Calm Calm - N/A   Overcast
3:53 PM 43.0 °F - 39.9 °F 89% 29.94 in 4.0 mi Calm Calm - N/A   Overcast
4:53 PM 43.0 °F - 41.0 °F 93% 29.94 in 3.0 mi Calm Calm - 0.00 in   Overcast
5:53 PM 42.1 °F - 41.0 °F 96% 29.95 in 5.0 mi Calm Calm - 0.00 in Rain Light Rain
6:02 PM 42.8 °F - 41.0 °F 93% 29.93 in 4.0 mi Calm Calm - 0.00 in Rain Light Rain
6:18 PM 42.8 °F - 41.0 °F 93% 29.93 in 4.0 mi Calm Calm - 0.00 in   Overcast
6:53 PM 42.1 °F - 41.0 °F 96% 29.95 in 4.0 mi Calm Calm - 0.00 in Rain Light Rain
7:06 PM 42.8 °F - 41.0 °F 93% 29.93 in 4.0 mi Calm Calm - 0.00 in Rain Light Rain
7:13 PM 42.8 °F 41.1 °F 41.0 °F 93% 29.93 in 3.0 mi ENE 3.5 mph - 0.00 in Rain Light Rain
7:23 PM 42.8 °F 40.1 °F 41.0 °F 93% 29.93 in 3.0 mi ENE 4.6 mph - 0.00 in Rain Light Rain
7:53 PM 42.1 °F 40.2 °F 41.0 °F 96% 29.95 in 3.0 mi East 3.5 mph - 0.00 in   Overcast
8:53 PM 42.1 °F 38.4 °F 39.9 °F 92% 29.94 in 4.0 mi ENE 5.8 mph - N/A   Overcast
9:53 PM 42.1 °F 39.2 °F 39.9 °F 92% 29.93 in 4.0 mi ENE 4.6 mph - N/A   Overcast
10:53 PM 42.1 °F 39.2 °F 39.9 °F 92% 29.92 in 3.0 mi East 4.6 mph - N/A   Overcast
11:07 PM 42.8 °F 39.3 °F 39.2 °F 87% 29.90 in 2.5 mi East 5.8 mph - N/A   Overcast
11:36 PM 41.0 °F 37.1 °F 39.2 °F 93% 29.90 in 2.0 mi East 5.8 mph - N/A   Overcast
11:48 PM 41.0 °F 35.8 °F 39.2 °F 93% 29.89 in 3.0 mi East 8.1 mph - N/A   Overcast
11:53 PM 41.0 °F 37.1 °F 39.9 °F 96% 29.90 in 3.0 mi East 5.8 mph - N/A   Overcast